Regional Weather Roundup
Issued by NWS

Home | Current Version | Previous Version | Graphics & Text | Print | Product List | Glossary Off
Versions: 1 2 3 4 5 6 7 8 9 10 11 12 13 14 15 16 17 18 19 20 21 22 23 24 25 26 27 28 29 30 31 32 33 34 35 36 37 38 39 40 41 42 43 44 45 46 47 48 49 50

000
ASUS43 KLSX 241710
RWRMO

WEATHER SUMMARY FOR MISSOURI
NATIONAL WEATHER SERVICE SPRINGFIELD MO
1200 PM CDT SAT SEP 24 2016

NOTE: "FAIR" INDICATES FEW OR NO CLOUDS BELOW 12,000 FEET WITH NO
       SIGNIFICANT WEATHER AND/OR OBSTRUCTIONS TO VISIBILITY.
       CURRENT SKY AND/OR WEATHER CONDITIONS ARE NOT AVAILABLE FOR
       CHILLICOTHE AND FARMINGTON.

MOZ001>031-035>038-043-044-053-054-241800-
...NORTHERN AND WESTERN MISSOURI...

CITY           SKY/WX    TMP DP  RH WIND       PRES   REMARKS
KANSAS CTY INT MOSUNNY   84  71  65 S14G22    30.03F
KANSAS C DTWN  PTSUNNY   87  72  60 S9        30.02F HX  93
LEE`S SUMMIT   MOSUNNY   84  71  65 S8        30.05S
ST JOSEPH      MOSUNNY   87  70  56 S13G20    30.01S HX  92
CHILLICOTHE      N/A     84  72  67 SE8       30.06F
KIRKSVILLE     SUNNY     84  69  60 S13       30.09F

$$
MOZ066>068-077>081-088>096-101>105-241800-
...SOUTHWEST MISSOURI...

CITY           SKY/WX    TMP DP  RH WIND       PRES   REMARKS
SPRINGFIELD    SUNNY     86  69  56 S9        30.09F HX  90
JOPLIN         MOSUNNY   86  71  60 SW14      30.08S HX  91
BRANSON        MOSUNNY   86  68  54 S7        30.12S

$$
MOZ032>034-039>042-045>050-055>058-069>072-241800-
...CENTRAL MISSOURI...

CITY           SKY/WX    TMP DP  RH WIND       PRES   REMARKS
COLUMBIA       SUNNY     84  71  65 SE6       30.10F
JEFFERSON CITY SUNNY     85  70  60 S6        30.08F
ROLLA          SUNNY     84  70  62 S8        30.11F
SEDALIA        MOSUNNY   87  71  58 SW9       30.09S HX  93
WHITEMAN AFB   MOSUNNY   86  74  66 SW10      30.05F HX  93
OSAGE BEACH    PTSUNNY   84  72  67 VRB3      30.10F

$$
MOZ051-052-059>065-241800-
...EAST CENTRAL MISSOURI...

CITY           SKY/WX    TMP DP  RH WIND       PRES   REMARKS
ST LOUIS INTL  MOSUNNY   88  66  48 S9        30.11F HX  90
SPIRIT OF STL  SUNNY     87  69  54 S5        30.09F HX  91
ST CHARLES     SUNNY     86  69  56 S7        30.09F HX  90

$$
MOZ072>076-082>087-097>100-106>115-241800-
...SOUTH CENTRAL AND SOUTHEAST MISSOURI...

CITY           SKY/WX    TMP DP  RH WIND       PRES   REMARKS
CAPE GIRARDEAU SUNNY     86  69  56 CALM      30.10F HX  90
FARMINGTON     MOSUNNY   86  69  56 VRB7      30.13F HX  90
WEST PLAINS    SUNNY     85  66  53 S8        30.15S

$$




USA.gov is the U.S. government's official web portal to all federal, state and local government web resources and services.